Weather in Bochilovo

Russia / Republic of Karelia     61°51′02″N   36°14′27″E
temp.,
°C
wind,
m/s
gust,
m/s
humid.,
%
clouds,
%
prec.,
mm/h
press.,
hPa
HPBL,
m
31 july, sat
sat3100:00+15sw2582100 0.0 99982
03:00+14s228841 0.1 99847
06:00+15sse368468 0.1 997211
09:00+19ssw356351 0.2 996582
12:00+18ssw486998 1.5 996624
15:00+18ssw456661 1.6 9961119
18:00+18sw336621 0.1 996851
21:00+15ssw229151 0.1 99839
1 august, sun
sun100:00+15wsw39911 0.3 999233
03:00+14wsw36955 0.3 1001157
06:00+15sw26904 0.0 1002257
09:00+19sw46675 0.0 1003532
12:00+21ssw475749 0.0 1003826
15:00+23ssw4752100 0.3 10011444
18:00+16ese1298100 10.4 100191
21:00+16sse3797100 12.9 1001217
2 august, mon
mon200:00+16sw412935 0.8 1001474
03:00+15sw5119585 0.8 1001680
06:00+15sw5108761 0.1 1003847
09:00+17sw587332 0.1 1004960
12:00+20sw475755 0.0 10041344
15:00+22ssw3647100 0.0 10041387
18:00+22ssw3553100 0.0 1003616
21:00+18sse2477100 0.1 100293
3 august, tue
tue300:00+16se2498100 1.0 1000123
03:00+16ne3699100 8.3 997288
06:00+16nnw1298100 0.4 996190
09:00+15nw4797100 0.8 996470
12:00+15nw4993100 0.2 999669
15:00+19wnw456285 0.3 10011142
18:00+19wnw346195 0.0 1002921
21:00+15wnw228585 0.0 100434
4 august, wed
wed400:00+14nnw3696100 0.3 1006256
03:00+13nnw3797100 1.3 1008387
06:00+11nnw379398 0.4 1010437
09:00+12n3578100 0.4 1013853
12:00+16n355319 0.0 10141402
15:00+19wnw35424 0.0 10151838
18:00+19nnw35392 0.0 10161693
21:00+13nw23705 0.0 101845